[[{"header":{"parameterUnit":"m.s-1","parameterCategory":1,"la1":30.2991,"la2":30.254,"lo1":-89.0895,"lo2":-89.0444,"dy":0.0017,"dx":0.0017,"nx":28,"ny":28,"refTime":"2025-04-11T21:00:00:Z","depth":0,"parameterNumber":2,"parameterNumberName":"U-component_of_WINDS"},"data":[0,0,0,0,0,0,0,0,0,0,0,0,0,0,0,0,0,0,0,0,0,0,0,0,0,0,0,0,0,0,0,0,0,0,0,0,0,0,0,0,0,0,0,0,0,0,0,0,0,0,0,0,0,0,0,0,0,0,1.6383,1.6384,0,1.6413,1.6413,1.6414,1.6395,1.6394,1.6393,1.6392,1.6425,1.6427,1.6428,0,0,0,0,0,0,0,0,0,0,0,0,0,1.6315,1.6316,1.6383,1.6384,1.6384,1.6413,1.6413,1.6414,1.6395,1.6394,1.6393,1.6392,1.6424,1.6426,1.6428,0,0,0,0,0,0,0,0,0,0,0,0,0,1.6345,1.6317,1.6383,1.6378,1.6378,1.6413,1.6413,1.6414,1.6395,1.6394,1.6392,1.6391,1.6424,1.6426,1.6429,1.6471,0,0,1.6437,1.6438,0,0,0,0,0,0,0,0,1.6343,1.6347,1.6378,1.6378,1.6378,1.6399,1.6401,1.6433,1.6395,1.6389,1.6392,1.6391,1.6417,1.642,1.6429,1.6473,1.6474,1.6437,1.6438,1.6439,1.644,0,0,0,0,0,0,0,1.6341,1.6346,1.6395,1.6379,1.6379,1.6376,1.6378,1.6407,1.641,1.6389,1.6388,1.6391,1.6417,1.6427,1.643,1.6475,1.6437,1.6439,1.6441,1.6442,1.6558,1.6559,0,0,0,0,0,0,1.6339,1.6344,1.6394,1.6396,1.6357,1.6378,1.6381,1.6394,1.641,1.6411,1.6393,1.639,1.6423,1.6427,1.6431,1.6483,1.6439,1.6442,1.6443,1.6556,1.6558,1.656,0,0,0,0,0,0,1.6337,1.6343,1.6393,1.637,1.6376,1.6381,1.6395,1.6395,1.6404,1.6412,1.6413,1.6401,1.6422,1.6427,1.6462,1.6484,1.6443,1.6445,1.6554,1.6557,1.6559,1.6587,0,0,0,0,0,0,1.6335,1.6343,1.6358,1.637,1.6377,1.6422,1.6396,1.6396,1.6408,1.6406,1.6421,1.6422,1.6421,1.6458,1.6464,1.6487,1.6447,1.6552,1.6555,1.6558,1.6584,1.659,1.6595,0,0,0,0,0,1.6333,1.6364,1.6359,1.6365,1.6396,1.6423,1.6427,1.6425,1.641,1.6426,1.6432,1.6422,1.6481,1.6462,1.6469,1.6492,1.6551,1.6555,1.6558,1.6582,1.6589,1.6595,0,0,0,0,0,0,1.6355,1.6366,1.6359,1.6395,1.6409,1.642,1.644,1.6432,1.6451,1.6448,1.6445,1.6449,1.6485,1.6492,1.6471,1.6536,1.6514,1.6519,1.6529,1.6536,1.6541,1.6539,1.6449,0,0,0,0,0,1.6363,1.6384,1.6393,1.6424,1.6431,1.6435,1.6446,1.6444,1.6458,1.6463,1.6471,1.6486,1.6508,1.6523,1.6543,1.6585,1.659,1.6605,1.6611,1.6615,1.6619,1.6645,1.6652,1.6571,1.6571,1.6571,0,0,1.6382,1.6391,1.6404,1.6429,1.6439,1.6461,1.6439,1.6463,1.6481,1.6467,1.65,1.6507,1.6524,1.6563,1.6581,1.657,1.6643,1.662,1.6623,1.6625,1.6649,1.6657,1.6664,1.6574,1.6573,1.6573,0,0,1.6428,1.6436,1.6463,1.6474,1.6489,1.6492,1.6499,1.6512,1.6516,1.6549,1.654,1.6562,1.6599,1.6612,1.6623,1.6677,1.6669,1.6684,1.6713,1.6737,1.6744,1.6749,1.677,1.6777,1.6689,1.6689,1.6689,0,1.6449,1.6481,1.6478,1.6504,1.6516,1.6505,1.6535,1.6546,1.6567,1.6577,1.6564,1.6613,1.6623,1.6666,1.668,1.6689,1.6698,1.6682,1.6743,1.6748,1.6754,1.6773,1.6781,1.6691,1.669,1.669,1.669,0,1.6508,1.6531,1.6551,1.6573,1.6587,1.6615,1.6618,1.6633,1.6631,1.6635,1.6671,1.6683,1.6707,1.6718,1.6715,1.6761,1.6754,1.6743,1.6721,1.6763,1.6782,1.6789,1.6693,1.6692,1.6692,1.6692,0,0,1.6565,1.6586,1.6594,1.6604,1.6622,1.664,1.6669,1.6692,1.6706,1.6723,1.6747,1.6781,1.6771,1.6784,1.6783,1.6805,1.6849,1.6791,1.6791,1.6802,1.6903,1.6912,1.692,1.6844,1.6846,1.6847,1.6902,0,1.6612,1.666,1.666,1.6704,1.6727,1.6719,1.6744,1.6758,1.6764,1.6786,1.6793,1.6817,1.6801,1.6809,1.6831,1.6839,1.6869,1.6835,1.6869,1.687,1.6864,1.693,1.6938,1.699,1.6909,1.691,1.6911,0,1.6672,1.6691,1.6738,1.6754,1.6764,1.6786,1.6809,1.6829,1.6847,1.685,1.6866,1.6862,1.6894,1.6872,1.6915,1.6892,1.6907,1.6913,1.6915,1.6918,1.6893,1.6935,1.7006,1.7014,1.6922,1.6921,1.6921,0,1.6711,1.6748,1.6781,1.679,1.681,1.6826,1.6836,1.6852,1.6867,1.6887,1.6897,1.6922,1.6935,1.6955,1.6959,1.6942,1.7004,1.6982,1.7009,1.7009,1.7021,1.702,1.7096,1.703,1.703,1.703,1.703,0,1.6763,1.6792,1.6799,1.6819,1.6853,1.6854,1.6888,1.6896,1.6911,1.6935,1.693,1.6952,1.6956,1.6981,1.6985,1.7022,1.7028,1.7032,1.7033,1.7033,1.7032,1.7041,1.7038,1.7032,1.7032,1.7031,1.7031,0,1.6811,1.6816,1.6852,1.6869,1.6874,1.6898,1.6913,1.6934,1.694,1.697,1.6978,1.6988,1.7017,1.7023,1.7057,1.706,1.7104,1.7101,1.7098,1.7098,1.7125,1.7122,1.7209,1.7221,1.7147,1.7148,1.7149,0,1.6843,1.6866,1.6885,1.6901,1.6911,1.6935,1.6951,1.6954,1.697,1.6994,1.7013,1.7041,1.7063,1.711,1.7121,1.7148,1.7146,1.7175,1.715,1.715,1.7148,1.7146,1.7149,1.7179,1.718,1.7181,1.7181,0,1.6901,1.6904,1.6925,1.6949,1.6968,1.6987,1.7005,1.7018,1.7024,1.7044,1.7073,1.709,1.7126,1.7155,1.7182,1.7194,1.7189,1.7189,1.7197,1.7197,1.7194,1.7197,1.7111,1.7187,1.7186,1.7186,1.7186,1.7185,1.6943,1.6963,1.6981,1.7006,1.7021,1.7039,1.7059,1.7069,1.7093,1.7122,1.7123,1.7155,1.7176,1.7212,1.7226,1.7252,1.7244,1.7255,1.7257,1.726,1.7263,1.719,1.7257,1.7257,1.7257,1.7257,1.7257,0,1.7001,1.7013,1.7036,1.7062,1.7083,1.7077,1.7098,1.7116,1.7144,1.7163,1.7186,1.7221,1.7249,1.7264,1.7293,1.7312,1.7311,1.732,1.7318,1.7322,1.7268,1.7259,1.732,1.732,1.732,1.732,1.732,1.732,1.7034,1.7069,1.7074,1.7117,1.7129,1.7159,1.7172,1.719,1.7205,1.7244,1.7267,1.7277,1.7295,1.7326,1.7353,1.7357,1.7368,1.7378,1.7381,1.7331,1.7325,1.7319,1.731,1.7381,1.7381,1.7432,1.7433,1.7433]},{"header":{"parameterUnit":"m.s-1","parameterCategory":1,"la1":30.2991,"la2":30.254,"lo1":-89.0895,"lo2":-89.0444,"dy":0.0017,"dx":0.0017,"nx":28,"ny":28,"refTime":"2025-04-11T21:00:00:Z","depth":0,"parameterNumber":3,"parameterNumberName":"V-component_of_WINDS"},"data":[0,0,0,0,0,0,0,0,0,0,0,0,0,0,0,0,0,0,0,0,0,0,0,0,0,0,0,0,0,0,0,0,0,0,0,0,0,0,0,0,0,0,0,0,0,0,0,0,0,0,0,0,0,0,0,0,0,0,-1.9765,-1.9765,0,-1.9726,-1.9725,-1.9725,-1.9739,-1.974,-1.974,-1.9741,-1.9698,-1.9696,-1.9694,0,0,0,0,0,0,0,0,0,0,0,0,0,-1.9848,-1.9847,-1.9765,-1.9765,-1.9764,-1.9726,-1.9725,-1.9725,-1.9738,-1.974,-1.9741,-1.9742,-1.9698,-1.9696,-1.9693,0,0,0,0,0,0,0,0,0,0,0,0,0,-1.9811,-1.9846,-1.9765,-1.9767,-1.9766,-1.9726,-1.9725,-1.9725,-1.9738,-1.974,-1.9741,-1.9742,-1.9699,-1.9696,-1.9693,-1.9648,0,0,-1.9684,-1.9683,0,0,0,0,0,0,0,0,-1.9813,-1.9808,-1.9767,-1.9766,-1.9766,-1.9739,-1.9739,-1.9699,-1.9738,-1.9749,-1.9741,-1.9743,-1.971,-1.9706,-1.9696,-1.9646,-1.9644,-1.9684,-1.9682,-1.9681,-1.968,0,0,0,0,0,0,0,-1.9815,-1.9809,-1.975,-1.9766,-1.9766,-1.9768,-1.9764,-1.9731,-1.9722,-1.9748,-1.9749,-1.9744,-1.971,-1.9699,-1.9695,-1.9644,-1.9684,-1.9681,-1.9679,-1.9678,-1.9552,-1.9551,0,0,0,0,0,0,-1.9819,-1.9811,-1.9751,-1.9748,-1.9793,-1.9765,-1.9761,-1.9746,-1.9723,-1.9721,-1.9743,-1.9745,-1.9703,-1.9698,-1.9693,-1.9637,-1.9681,-1.9678,-1.9676,-1.9554,-1.9552,-1.955,0,0,0,0,0,0,-1.982,-1.9813,-1.9752,-1.978,-1.9773,-1.9762,-1.9746,-1.9745,-1.9733,-1.9719,-1.9717,-1.9733,-1.9704,-1.9697,-1.9659,-1.9635,-1.9677,-1.9674,-1.9556,-1.9553,-1.9551,-1.9525,0,0,0,0,0,0,-1.9823,-1.9814,-1.9798,-1.978,-1.9771,-1.972,-1.9744,-1.9743,-1.9728,-1.9731,-1.9709,-1.9707,-1.9704,-1.9663,-1.9656,-1.9632,-1.9672,-1.9558,-1.9554,-1.9552,-1.9527,-1.9522,-1.9517,0,0,0,0,0,-1.9826,-1.9792,-1.9797,-1.9789,-1.9751,-1.9719,-1.9714,-1.9712,-1.9727,-1.9709,-1.97,-1.9708,-1.964,-1.9659,-1.9651,-1.9626,-1.9559,-1.9555,-1.9552,-1.953,-1.9523,-1.9517,0,0,0,0,0,0,-1.9807,-1.979,-1.9795,-1.9755,-1.9738,-1.9721,-1.9699,-1.9705,-1.9683,-1.9686,-1.9684,-1.9679,-1.9638,-1.9629,-1.9651,-1.958,-1.9601,-1.9596,-1.9587,-1.958,-1.9575,-1.9577,-1.9669,0,0,0,0,0,-1.9798,-1.9774,-1.976,-1.9726,-1.9717,-1.971,-1.9696,-1.9696,-1.9678,-1.9671,-1.9659,-1.964,-1.9614,-1.9597,-1.9573,-1.9527,-1.9521,-1.9505,-1.95,-1.9496,-1.949,-1.9462,-1.9454,-1.9539,-1.9539,-1.9539,0,0,-1.9779,-1.9767,-1.9752,-1.9722,-1.9709,-1.9682,-1.9704,-1.9676,-1.9655,-1.9666,-1.9628,-1.9619,-1.9598,-1.9555,-1.9535,-1.9545,-1.9466,-1.9491,-1.9488,-1.9484,-1.9457,-1.9449,-1.9442,-1.9536,-1.9537,-1.9537,0,0,-1.9731,-1.9721,-1.969,-1.9676,-1.9657,-1.9652,-1.9644,-1.9626,-1.962,-1.9583,-1.9589,-1.9565,-1.9521,-1.9505,-1.9491,-1.9435,-1.944,-1.9428,-1.9398,-1.937,-1.9364,-1.9358,-1.9334,-1.9327,-1.9423,-1.9423,-1.9423,0,-1.971,-1.9672,-1.9673,-1.9643,-1.9628,-1.9638,-1.9605,-1.9592,-1.9565,-1.9553,-1.9566,-1.9509,-1.9496,-1.9448,-1.9434,-1.9424,-1.9412,-1.9429,-1.9365,-1.9359,-1.9353,-1.9331,-1.9323,-1.9421,-1.9421,-1.9421,-1.9421,0,-1.9645,-1.9618,-1.9595,-1.9569,-1.9552,-1.9521,-1.9515,-1.9497,-1.9499,-1.9492,-1.9452,-1.9437,-1.9408,-1.9397,-1.9398,-1.9348,-1.9354,-1.9366,-1.9387,-1.9343,-1.9322,-1.9314,-1.9418,-1.9419,-1.942,-1.942,0,0,-1.9583,-1.9557,-1.9548,-1.9535,-1.9514,-1.9492,-1.9461,-1.9433,-1.9417,-1.9398,-1.9369,-1.9332,-1.9342,-1.9326,-1.9325,-1.9301,-1.9254,-1.9316,-1.9315,-1.9302,-1.9193,-1.9182,-1.9172,-1.9259,-1.9257,-1.9256,-1.9194,0,-1.953,-1.9476,-1.9475,-1.9424,-1.9397,-1.9406,-1.9378,-1.936,-1.9353,-1.9328,-1.932,-1.9291,-1.9309,-1.9299,-1.9276,-1.9265,-1.9232,-1.927,-1.9229,-1.9227,-1.9231,-1.9162,-1.9151,-1.9093,-1.9186,-1.9185,-1.9184,0,-1.9462,-1.944,-1.9387,-1.9367,-1.9356,-1.9331,-1.9304,-1.9281,-1.9261,-1.9257,-1.9239,-1.9241,-1.9207,-1.9231,-1.9182,-1.9207,-1.9191,-1.9183,-1.918,-1.9174,-1.9201,-1.915,-1.9075,-1.9065,-1.9171,-1.9172,-1.9173,0,-1.9418,-1.9376,-1.9337,-1.9326,-1.9303,-1.9285,-1.9274,-1.9255,-1.9238,-1.9215,-1.9203,-1.9176,-1.916,-1.9138,-1.9132,-1.9151,-1.9082,-1.9107,-1.9075,-1.9075,-1.9058,-1.9058,-1.8975,-1.9053,-1.9053,-1.9053,-1.9053,0,-1.9357,-1.9323,-1.9317,-1.9293,-1.9254,-1.9253,-1.9214,-1.9205,-1.9188,-1.916,-1.9167,-1.9141,-1.9136,-1.9109,-1.9104,-1.9062,-1.9056,-1.9049,-1.9048,-1.9047,-1.9047,-1.9034,-1.9036,-1.9051,-1.9051,-1.9051,-1.9052,0,-1.9301,-1.9295,-1.9253,-1.9235,-1.9229,-1.9201,-1.9184,-1.916,-1.9153,-1.9118,-1.911,-1.9099,-1.9066,-1.9059,-1.9021,-1.9018,-1.8967,-1.8971,-1.8973,-1.8972,-1.894,-1.8942,-1.8842,-1.8828,-1.8918,-1.8917,-1.8917,0,-1.9261,-1.9235,-1.9213,-1.9196,-1.9184,-1.9156,-1.9138,-1.9136,-1.9117,-1.9091,-1.9069,-1.9038,-1.9012,-1.8959,-1.8947,-1.8916,-1.8918,-1.8885,-1.8913,-1.8912,-1.8913,-1.8913,-1.8909,-1.8879,-1.8878,-1.8877,-1.8876,0,-1.919,-1.9189,-1.9163,-1.9136,-1.9115,-1.9093,-1.9073,-1.9058,-1.9053,-1.903,-1.8998,-1.8978,-1.8938,-1.8905,-1.8875,-1.8862,-1.8866,-1.8868,-1.8858,-1.8855,-1.8856,-1.8852,-1.8955,-1.887,-1.887,-1.8871,-1.8871,-1.8871,-1.9139,-1.9114,-1.9095,-1.9065,-1.905,-1.903,-1.9006,-1.8996,-1.8969,-1.8936,-1.8937,-1.89,-1.8878,-1.8838,-1.8823,-1.8792,-1.8802,-1.8789,-1.8785,-1.8781,-1.8777,-1.8864,-1.8787,-1.8788,-1.8788,-1.8788,-1.8788,0,-1.9065,-1.9053,-1.9026,-1.8997,-1.8973,-1.8982,-1.8959,-1.8938,-1.8905,-1.8885,-1.886,-1.882,-1.8788,-1.8773,-1.8741,-1.8719,-1.872,-1.871,-1.871,-1.8706,-1.8772,-1.8781,-1.871,-1.871,-1.871,-1.871,-1.871,-1.871,-1.9024,-1.8982,-1.8978,-1.8928,-1.8916,-1.888,-1.8865,-1.8846,-1.883,-1.8786,-1.8759,-1.875,-1.8731,-1.8697,-1.8667,-1.8663,-1.8649,-1.8637,-1.8634,-1.8694,-1.8702,-1.871,-1.8719,-1.8635,-1.8635,-1.8571,-1.857,-1.857]}]]